Tracking 29747 objects as of 10-Oct-2024
HD Live streaming from Space Station
objects crossing your sky now

DELTA 1 DEB

Track DELTA 1 DEB now!
10-day predictions


NORAD ID: 42635
Int'l Code: 1975-052LU
Perigee: 1,021.6 km
Apogee: 1,089.6 km
Inclination: 99.8 °
Period: 106.2 minutes
Semi major axis: 7426 km
RCS: Unknown
Launch date: June 12, 1975
Source: United States (US)
Launch site: AIR FORCE WESTERN TEST RANGE (AFWTR)

Note: This is SATELLITE DEBRIS
Your satellite tracking list
Your tracking list is empty




NASA's NSSDC Master Catalog

Two Line Element Set (TLE):
1 42635U 75052LU  24283.21041826  .00000717  00000-0  10724-2 0  9993
2 42635  99.7805 191.0583 0045833  24.1090 131.0441 13.56492252538487
Source of the keplerian elements: AFSPC